St. Johnsbury, VT

11:43 AM EDT on June 23, 2017 (GMT -0400)
St. Johnsbury

Weather History for K1V4 - July, 2012

Change the Weather History Date:

Friday, July 13, 2012

  Actual Average Record
Temperature  
Mean Temperature 72 °F 70 °F  
Max Temperature 89 °F 82 °F 95 °F (1909)
Min Temperature 55 °F 59 °F 40 °F (1971)
Degree Days  
Heating Degree Days 0 0  
Month to date heating degree days 10  
Since 1 June heating degree days 82  
Since 1 July heating degree days 10  
Cooling Degree Days 7 6  
Month to date cooling degree days 51 72  
Year to date cooling degree days 143 180  
Since 1 June cooling degree days 117 162  
Growing Degree Days 22 (Base 50)    
Moisture  
Dew Point 55 °F    
Average Humidity 63    
Maximum Humidity 100    
Minimum Humidity 25    
Precipitation  
Precipitation 0.00 in 0.13 in 1.39 in (1897)
Month to date precipitation 2.35 1.66  
Year to date precipitation 17.83 19.08  
Sea Level Pressure  
Sea Level Pressure 30.11 in    
Wind  
Wind Speed - (North)    
Max Wind Speed -    
Max Gust Speed -    
T = Trace of Precipitation, MM = Missing Value Source: NWS Daily Summary

Daily Weather History Graph

Daily Weather History Graph

Search for Another Location

Airport or City:

Trip Planner

Search our weather history database for the weather conditions in past years. The results will help you decide how hot, cold, wet, or windy it might be!

Date:

Astronomy

Jul. 13, 2012 Rise Set
Actual Time 5:16 AM EDT 8:30 PM EDT
Civil Twilight 4:40 AM EDT 9:06 PM EDT
Nautical Twilight 3:54 AM EDT 9:52 PM EDT
Astronomical Twilight 2:58 AM EDT 10:48 PM EDT
Moon 12:55 AM EDT (7/13) 3:55 PM EDT (7/13)
Length of Visible Light 16h 25m
Length of Day
15h 14m
Waning Crescent, 26% of the Moon is Illuminated
Jul 13
Waning Crescent
Jul 19
New
Jul 26
First Quarter
Aug 1
Full
Aug 9
Last Quarter

Hourly Weather History & Observations

Time (EDT) Temp. Heat Index Dew Point Humidity Pressure Visibility Wind Dir Wind Speed Gust Speed Precip Events Conditions
12:54 AM 62.1 °F - 57.9 °F 86% 30.10 in - North - - N/A   Unknown
1:54 AM 60.1 °F - 57.0 °F 90% 30.11 in - North - - N/A   Unknown
2:54 AM 57.9 °F - 55.9 °F 93% 30.12 in - North - - N/A   Unknown
3:54 AM 55.9 °F - 55.0 °F 97% 30.12 in - North - - N/A   Unknown
4:54 AM 55.0 °F - 53.1 °F 93% 30.14 in - North - - N/A   Unknown
5:54 AM 55.0 °F - 53.1 °F 93% 30.15 in - North - - N/A   Unknown
6:54 AM 57.0 °F - 54.0 °F 89% 30.17 in - North - - N/A   Unknown
7:54 AM 60.1 °F - 55.0 °F 83% 30.17 in - North - - N/A   Unknown
8:54 AM 64.9 °F - 57.9 °F 78% 30.17 in - North - - N/A   Unknown
9:54 AM 71.1 °F - 61.0 °F 70% 30.15 in - North - - N/A   Unknown
10:54 AM 77.0 °F - 61.0 °F 58% 30.14 in - North - - N/A   Unknown
11:54 AM 82.0 °F 82.1 °F 59.0 °F 45% 30.13 in - North - - N/A   Unknown
12:54 PM 84.0 °F 82.6 °F 54.0 °F 35% 30.11 in - North - - N/A   Unknown
1:54 PM 86.0 °F - 46.9 °F 26% 30.10 in - North - - N/A   Unknown
2:54 PM 87.1 °F - 51.1 °F 29% 30.09 in - North - - N/A   Unknown
3:54 PM 88.0 °F - 50.0 °F 27% 30.08 in - North - - N/A   Unknown
4:54 PM 88.0 °F - 50.0 °F 27% 30.07 in - North - - N/A   Unknown
5:54 PM 87.1 °F - 50.0 °F 28% 30.06 in - North - - N/A   Unknown
6:54 PM 84.9 °F - 52.0 °F 32% 30.06 in - North - - N/A   Unknown
7:54 PM 79.0 °F - 60.1 °F 52% 30.06 in - North - - N/A   Unknown
8:54 PM 73.0 °F - 59.0 °F 61% 30.08 in - North - - N/A   Unknown
9:54 PM 69.1 °F - 57.9 °F 68% 30.09 in - North - - N/A   Unknown
10:54 PM 64.9 °F - 57.9 °F 78% 30.09 in - North - - N/A   Unknown
11:54 PM 64.0 °F - 57.0 °F 78% 30.10 in - North - - N/A   Unknown